TimeCDT,TemperatureF,Dew PointF,Humidity,Sea Level PressureIn,VisibilityMPH,Wind Direction,Wind SpeedMPH,Gust SpeedMPH,PrecipitationIn,Events,Conditions,WindDirDegrees,DateUTC
12:56 AM,54.9,50.9,86,29.98,10.0,NNW,8.1,-,N/A,,Overcast,330,2013-10-06 05:56:00
1:56 AM,54.9,50.9,86,29.99,10.0,WSW,5.8,-,N/A,,Overcast,240,2013-10-06 06:56:00
2:56 AM,54.9,52.0,90,29.96,10.0,NW,3.5,-,0.11,,Clear,320,2013-10-06 07:56:00
3:56 AM,54.0,52.0,93,29.95,10.0,WNW,6.9,-,N/A,,Clear,300,2013-10-06 08:56:00
4:56 AM,54.0,52.0,93,29.97,10.0,West,4.6,-,N/A,,Clear,270,2013-10-06 09:56:00
5:56 AM,52.9,52.9,100,29.99,10.0,SW,4.6,-,N/A,,Scattered Clouds,220,2013-10-06 10:56:00
6:56 AM,52.9,52.0,97,29.99,10.0,SW,3.5,-,N/A,,Clear,230,2013-10-06 11:56:00
7:56 AM,52.0,52.0,100,29.99,10.0,South,4.6,-,N/A,,Clear,180,2013-10-06 12:56:00
8:56 AM,57.9,54.0,87,29.99,10.0,SW,5.8,-,N/A,,Clear,220,2013-10-06 13:56:00
9:56 AM,61.9,50.0,65,29.98,10.0,WNW,11.5,-,N/A,,Clear,300,2013-10-06 14:56:00
10:56 AM,63.9,43.9,48,29.97,10.0,West,11.5,-,N/A,,Clear,280,2013-10-06 15:56:00
11:56 AM,64.9,43.0,45,29.96,10.0,West,12.7,-,N/A,,Clear,280,2013-10-06 16:56:00
12:56 PM,68.0,45.0,43,29.95,10.0,West,9.2,-,N/A,,Clear,270,2013-10-06 17:56:00
1:56 PM,68.9,45.0,42,29.93,10.0,West,6.9,-,N/A,,Clear,280,2013-10-06 18:56:00
2:56 PM,70.0,46.9,44,29.90,10.0,West,5.8,-,N/A,,Clear,280,2013-10-06 19:56:00
3:56 PM,70.9,47.8,44,29.90,10.0,West,6.9,-,N/A,,Partly Cloudy,260,2013-10-06 20:56:00
4:56 PM,68.9,45.0,42,29.91,10.0,NW,16.1,-,N/A,,Clear,310,2013-10-06 21:56:00
5:56 PM,66.9,46.9,49,29.93,10.0,NW,15.0,-,N/A,,Clear,320,2013-10-06 22:56:00
6:56 PM,59.9,46.9,62,29.95,10.0,NNW,9.2,-,N/A,,Clear,330,2013-10-06 23:56:00
7:56 PM,55.9,46.9,72,29.97,10.0,NNW,6.9,-,N/A,,Clear,330,2013-10-07 00:56:00
8:56 PM,52.9,47.8,83,29.99,10.0,NNW,6.9,-,N/A,,Clear,330,2013-10-07 01:56:00
9:56 PM,52.9,45.9,77,30.01,10.0,NNW,6.9,-,N/A,,Clear,330,2013-10-07 02:56:00
10:56 PM,50.9,45.9,83,30.01,10.0,NNW,4.6,-,N/A,,Clear,330,2013-10-07 03:56:00
11:56 PM,52.9,46.9,80,30.01,10.0,WNW,8.1,-,N/A,,Clear,290,2013-10-07 04:56:00